Home   Weather   Montreal   Past weeks

Flag for Canada Past Weather in Montreal, Quebec, Canada — Yesterday and Last 2 Weeks

48 °F

Rain. Fog.

Feels Like: 42 °F
Forecast: 48 / 50 °F
Wind: 18 mph from Northeast

Location: Montreal - Pierre Elliot Trudeau International Aiport

Current Time: Oct 21, 2016 at 10:59:26 AM

Latest Report: Oct 21, 2016 at 10:00 AM

Visibility: 4 mi

Pressure: 29.78 "Hg

Humidity: 94%

Dew Point: 46 °F

Location of MontrealLocation

Past Weather in Montreal — Graph


Montreal Temperature Yesterday

Maximum temperature yesterday: 54 °F (at 10:00 AM)
Minimum temperature yesterday: 46 °F (at 3:00 AM)
Average temperature yesterday: 51 °F

High & Low Weather Summary for the Past Weeks

High77 °F (Oct 7, 3:00 PM)100% (Oct 16, 11:49 PM)30.46 "Hg (Oct 16, 11:49 PM)
Low36 °F (Oct 14, 5:00 AM)36% (Oct 11, 3:00 PM)29.48 "Hg (Oct 18, 5:48 PM)
Average54 °F72%30.10 "Hg
* Reported Oct 6 9:00 AM — Oct 21 9:00 AM, Montreal, Weather by CustomWeather, © 2016

Note: Actual official high and low records may vary slightly from our data, if they occured in-between our weather recording intervals... More about our weather records


Montreal Weather History for the Previous 24 Hours

Scroll right to see more
Time TempWeatherWind HumidityBarometerVisibility
9:00 AM
Fri, Oct 21
48 °FRain. Fog.20 mph94%29.81 "Hg5 mi
8:45 AM48 °FRain. Fog.21 mph94%29.80 "Hg5 mi
8:00 AM48 °FLight rain. Fog.22 mph94%29.81 "Hg3 mi
7:00 AM50 °FLight rain. Mostly cloudy.22 mph94%29.82 "Hg8 mi
6:00 AM50 °FRain. Fog.14 mph94%29.85 "Hg5 mi
5:00 AM50 °FRain. Fog.15 mph94%29.85 "Hg5 mi
4:00 AM50 °FLight rain. Fog.13 mph100%29.85 "Hg5 mi
3:00 AM50 °FLight rain. Fog.12 mph100%29.89 "Hg5 mi
2:00 AM50 °FRain. Fog.8 mph100%29.92 "Hg5 mi
1:00 AM50 °FRain. Fog.9 mph100%29.94 "Hg5 mi
12:00 AM52 °FRain. Fog.12 mph94%29.96 "Hg6 mi
11:00 PM
Thu, Oct 20
52 °FRain. Fog.12 mph94%29.99 "Hg5 mi
10:00 PM52 °FLight rain. Fog.12 mph94%30.04 "Hg5 mi
9:00 PM52 °FLight rain. Fog.15 mph94%30.04 "Hg5 mi
8:00 PM52 °FLight rain. Mostly cloudy.13 mph94%30.07 "Hg4 mi
7:00 PM52 °FLight rain. Overcast.10 mph94%30.10 "Hg8 mi
6:00 PM52 °FLight rain. Overcast.10 mph94%30.13 "Hg8 mi
5:00 PM54 °FLight rain. Mostly cloudy.6 mph88%30.14 "Hg12 mi
4:00 PM54 °FLight rain. Overcast.8 mph94%30.15 "Hg10 mi
3:00 PM54 °FLight rain. Overcast.7 mph94%30.15 "Hg10 mi
2:00 PM54 °FLight rain. Overcast.6 mph88%30.17 "Hg12 mi
1:00 PM52 °FLight rain. Mostly cloudy.5 mph82%30.18 "Hg15 mi
12:46 PM50 °FLight rain. Mostly cloudy.8 mph88%30.18 "Hg15 mi
12:00 PM52 °FOvercast.8 mph82%30.19 "Hg15 mi
11:47 AM52 °FOvercast.7 mph82%30.19 "Hg15 mi
11:00 AM50 °FOvercast.9 mph88%30.18 "Hg30 mi
10:00 AM54 °FOvercast.3 mph77%30.17 "Hg30 mi
Weather by CustomWeather, © 2016

See weather overviewHow to use our weather pages